Year,Month,Day,Hour,Minute,Value (Times are PST for temperature in C)
2015,03,08,00,00,5.10
2015,03,08,00,01,5.10
2015,03,08,00,02,5.10
2015,03,08,00,03,5.10
2015,03,08,00,04,5.10
2015,03,08,00,05,5.10
2015,03,08,00,06,5.10
2015,03,08,00,07,5.00
2015,03,08,00,08,5.00
2015,03,08,00,09,5.00
2015,03,08,00,10,5.00
2015,03,08,00,11,5.00
2015,03,08,00,12,5.10
2015,03,08,00,13,5.10
2015,03,08,00,14,5.10
2015,03,08,00,15,5.10
2015,03,08,00,16,5.10
2015,03,08,00,17,5.10
2015,03,08,00,18,5.10
2015,03,08,00,19,5.10
2015,03,08,00,20,5.10
2015,03,08,00,21,5.10
2015,03,08,00,22,5.10
2015,03,08,00,23,5.10
2015,03,08,00,24,5.10
2015,03,08,00,25,5.10
2015,03,08,00,26,5.10
2015,03,08,00,27,5.10
2015,03,08,00,28,5.10
2015,03,08,00,29,5.10
2015,03,08,00,30,5.10
2015,03,08,00,31,5.10
2015,03,08,00,32,5.10
2015,03,08,00,33,5.10
2015,03,08,00,34,5.10
2015,03,08,00,35,5.10
2015,03,08,00,36,5.10
2015,03,08,00,37,5.10
2015,03,08,00,38,5.10
2015,03,08,00,39,5.10
2015,03,08,00,40,5.10
2015,03,08,00,41,5.10
2015,03,08,00,42,5.10
2015,03,08,00,43,5.10
2015,03,08,00,44,5.10
2015,03,08,00,45,5.10
2015,03,08,00,46,5.10
2015,03,08,00,47,5.10
2015,03,08,00,48,5.10
2015,03,08,00,49,5.10
2015,03,08,00,50,5.10
2015,03,08,00,51,5.20
2015,03,08,00,52,5.10
2015,03,08,00,53,5.10
2015,03,08,00,54,5.10
2015,03,08,00,55,5.10
2015,03,08,00,56,5.10
2015,03,08,00,57,5.10
2015,03,08,00,58,5.10
2015,03,08,00,59,5.10
2015,03,08,01,00,5.10
2015,03,08,01,01,5.10
2015,03,08,01,02,5.10
2015,03,08,01,03,5.10
2015,03,08,01,04,5.10
2015,03,08,01,05,5.10
2015,03,08,01,06,5.10
2015,03,08,01,07,5.10
2015,03,08,01,08,5.10
2015,03,08,01,09,5.10
2015,03,08,01,10,5.10
2015,03,08,01,11,5.00
2015,03,08,01,12,5.00
2015,03,08,01,13,5.00
2015,03,08,01,14,5.00
2015,03,08,01,15,5.00
2015,03,08,01,16,5.00
2015,03,08,01,17,5.00
2015,03,08,01,18,5.00
2015,03,08,01,19,5.00
2015,03,08,01,20,5.00
2015,03,08,01,21,5.00
2015,03,08,01,22,5.00
2015,03,08,01,23,5.00
2015,03,08,01,24,5.00
2015,03,08,01,25,4.90
2015,03,08,01,26,4.90
2015,03,08,01,27,4.90
2015,03,08,01,28,4.90
2015,03,08,01,29,4.90
2015,03,08,01,30,4.90
2015,03,08,01,31,4.90
2015,03,08,01,32,4.80
2015,03,08,01,33,4.80
2015,03,08,01,34,4.80
2015,03,08,01,35,4.90
2015,03,08,01,36,4.90
2015,03,08,01,37,4.90
2015,03,08,01,38,4.90
2015,03,08,01,39,4.90
2015,03,08,01,40,4.90
2015,03,08,01,41,4.90
2015,03,08,01,42,4.90
2015,03,08,01,43,4.90
2015,03,08,01,44,4.80
2015,03,08,01,45,4.80
2015,03,08,01,46,4.80
2015,03,08,01,47,4.80
2015,03,08,01,48,4.80
2015,03,08,01,49,4.80
2015,03,08,01,50,4.80
2015,03,08,01,51,4.90
2015,03,08,01,52,4.90
2015,03,08,01,53,4.90
2015,03,08,01,54,4.90
2015,03,08,01,55,4.90
2015,03,08,01,56,4.80
2015,03,08,01,57,4.80
2015,03,08,01,58,4.80
2015,03,08,01,59,4.80
2015,03,08,03,00,4.80
2015,03,08,03,01,4.80
2015,03,08,03,02,4.80
2015,03,08,03,03,4.80
2015,03,08,03,04,4.80
2015,03,08,03,05,4.90
2015,03,08,03,06,4.90
2015,03,08,03,07,4.90
2015,03,08,03,08,4.90
2015,03,08,03,09,4.90
2015,03,08,03,10,4.90
2015,03,08,03,11,5.00
2015,03,08,03,12,5.00
2015,03,08,03,13,5.00
2015,03,08,03,14,5.00
2015,03,08,03,15,5.00
2015,03,08,03,16,5.00
2015,03,08,03,17,5.00
2015,03,08,03,18,5.00
2015,03,08,03,19,4.90
2015,03,08,03,20,4.90
2015,03,08,03,21,4.90
2015,03,08,03,22,4.90
2015,03,08,03,23,4.90
2015,03,08,03,24,5.00
2015,03,08,03,25,5.00
2015,03,08,03,26,4.90
2015,03,08,03,27,4.90
2015,03,08,03,28,4.80
2015,03,08,03,29,4.80
2015,03,08,03,30,4.70
2015,03,08,03,31,4.60
2015,03,08,03,32,4.60
2015,03,08,03,33,4.50
2015,03,08,03,34,4.50
2015,03,08,03,35,4.40
2015,03,08,03,36,4.40
2015,03,08,03,37,4.40
2015,03,08,03,38,4.40
2015,03,08,03,39,4.40
2015,03,08,03,40,4.40
2015,03,08,03,41,4.40
2015,03,08,03,42,4.50
2015,03,08,03,43,4.60
2015,03,08,03,44,4.70
2015,03,08,03,45,4.80
2015,03,08,03,46,4.80
2015,03,08,03,47,4.80
2015,03,08,03,48,4.90
2015,03,08,03,49,4.80
2015,03,08,03,50,4.80
2015,03,08,03,51,4.80
2015,03,08,03,52,5.00
2015,03,08,03,53,5.10
2015,03,08,03,54,5.20
2015,03,08,03,55,5.30
2015,03,08,03,56,5.30
2015,03,08,03,57,5.30
2015,03,08,03,58,5.20
2015,03,08,03,59,5.20
2015,03,08,04,00,5.20
2015,03,08,04,01,5.20
2015,03,08,04,02,5.10
2015,03,08,04,03,5.10
2015,03,08,04,04,5.10
2015,03,08,04,05,5.00
2015,03,08,04,06,5.10
2015,03,08,04,07,5.00
2015,03,08,04,08,5.00
2015,03,08,04,09,5.10
2015,03,08,04,10,5.20
2015,03,08,04,11,5.20
2015,03,08,04,12,5.20
2015,03,08,04,13,5.20
2015,03,08,04,14,5.10
2015,03,08,04,15,5.00
2015,03,08,04,16,4.90
2015,03,08,04,17,4.90
2015,03,08,04,18,4.80
2015,03,08,04,19,4.80
2015,03,08,04,20,4.80
2015,03,08,04,21,4.80
2015,03,08,04,22,4.70
2015,03,08,04,23,4.70
2015,03,08,04,24,4.70
2015,03,08,04,25,4.70
2015,03,08,04,26,4.70
2015,03,08,04,27,4.70
2015,03,08,04,28,4.70
2015,03,08,04,29,4.70
2015,03,08,04,30,4.70
2015,03,08,04,31,4.70
2015,03,08,04,32,4.70
2015,03,08,04,33,4.70
2015,03,08,04,34,4.70
2015,03,08,04,35,4.70
2015,03,08,04,36,4.70
2015,03,08,04,37,4.60
2015,03,08,04,38,4.60
2015,03,08,04,39,4.60
2015,03,08,04,40,4.60
2015,03,08,04,41,4.80
2015,03,08,04,42,4.80
2015,03,08,04,43,4.90
2015,03,08,04,44,5.00
2015,03,08,04,45,5.10
2015,03,08,04,46,5.10
2015,03,08,04,47,5.20
2015,03,08,04,48,5.20
2015,03,08,04,49,5.30
2015,03,08,04,50,5.30
2015,03,08,04,51,5.30
2015,03,08,04,52,5.30
2015,03,08,04,53,5.20
2015,03,08,04,54,5.20
2015,03,08,04,55,5.20
2015,03,08,04,56,5.10
2015,03,08,04,57,5.10
2015,03,08,04,58,5.00
2015,03,08,04,59,5.00
2015,03,08,05,00,5.00
2015,03,08,05,01,5.00
2015,03,08,05,02,5.00
2015,03,08,05,03,5.00
2015,03,08,05,04,5.00
2015,03,08,05,05,5.00
2015,03,08,05,06,5.00
2015,03,08,05,07,5.00
2015,03,08,05,08,5.00
2015,03,08,05,09,5.00
2015,03,08,05,10,5.00
2015,03,08,05,11,5.10
2015,03,08,05,12,5.10
2015,03,08,05,13,5.00
2015,03,08,05,14,5.00
2015,03,08,05,15,5.00
2015,03,08,05,16,5.00
2015,03,08,05,17,4.90
2015,03,08,05,18,4.90
2015,03,08,05,19,4.80
2015,03,08,05,20,4.80
2015,03,08,05,21,4.70
2015,03,08,05,22,4.70
2015,03,08,05,23,4.60
2015,03,08,05,24,4.60
2015,03,08,05,25,4.60
2015,03,08,05,26,4.50
2015,03,08,05,27,4.60
2015,03,08,05,28,4.60
2015,03,08,05,29,4.60
2015,03,08,05,30,4.60
2015,03,08,05,31,4.50
2015,03,08,05,32,4.50
2015,03,08,05,33,4.50
2015,03,08,05,34,4.50
2015,03,08,05,35,4.50
2015,03,08,05,36,4.50
2015,03,08,05,37,4.40
2015,03,08,05,38,4.40
2015,03,08,05,39,4.40
2015,03,08,05,40,4.40
2015,03,08,05,41,4.40
2015,03,08,05,42,4.40
2015,03,08,05,43,4.40
2015,03,08,05,44,4.50
2015,03,08,05,45,4.50
2015,03,08,05,46,4.50
2015,03,08,05,47,4.50
2015,03,08,05,48,4.60
2015,03,08,05,49,4.50
2015,03,08,05,50,4.50
2015,03,08,05,51,4.50
2015,03,08,05,52,4.40
2015,03,08,05,53,4.40
2015,03,08,05,54,4.40
2015,03,08,05,55,4.30
2015,03,08,05,56,4.30
2015,03,08,05,57,4.30
2015,03,08,05,58,4.30
2015,03,08,05,59,4.30
2015,03,08,06,00,4.30
2015,03,08,06,01,4.40
2015,03,08,06,02,4.40
2015,03,08,06,03,4.40
2015,03,08,06,04,4.40
2015,03,08,06,05,4.30
2015,03,08,06,06,4.30
2015,03,08,06,07,4.30
2015,03,08,06,08,4.30
2015,03,08,06,09,4.20
2015,03,08,06,10,4.30
2015,03,08,06,11,4.30
2015,03,08,06,12,4.30
2015,03,08,06,13,4.30
2015,03,08,06,14,4.40
2015,03,08,06,15,4.40
2015,03,08,06,16,4.40
2015,03,08,06,17,4.40
2015,03,08,06,18,4.40
2015,03,08,06,19,4.40
2015,03,08,06,20,4.40
2015,03,08,06,21,4.30
2015,03,08,06,22,4.30
2015,03,08,06,23,4.30
2015,03,08,06,24,4.20
2015,03,08,06,25,4.20
2015,03,08,06,26,4.20
2015,03,08,06,27,4.20
2015,03,08,06,28,4.20
2015,03,08,06,29,4.20
2015,03,08,06,30,4.20
2015,03,08,06,31,4.20
2015,03,08,06,32,4.20
2015,03,08,06,33,4.20
2015,03,08,06,34,4.20
2015,03,08,06,35,4.10
2015,03,08,06,36,4.10
2015,03,08,06,37,4.10
2015,03,08,06,38,4.10
2015,03,08,06,39,4.00
2015,03,08,06,40,4.00
2015,03,08,06,41,4.00
2015,03,08,06,42,4.00
2015,03,08,06,43,4.00
2015,03,08,06,44,4.00
2015,03,08,06,45,4.00
2015,03,08,06,46,4.00
2015,03,08,06,47,4.00
2015,03,08,06,48,4.00
2015,03,08,06,49,4.00
2015,03,08,06,50,4.10
2015,03,08,06,51,4.10
2015,03,08,06,52,4.10
2015,03,08,06,53,4.10
2015,03,08,06,54,4.10
2015,03,08,06,55,4.10
2015,03,08,06,56,4.10
2015,03,08,06,57,4.10
2015,03,08,06,58,4.00
2015,03,08,06,59,4.00
2015,03,08,07,00,4.00
2015,03,08,07,01,4.00
2015,03,08,07,02,4.00
2015,03,08,07,03,4.00
2015,03,08,07,04,4.00
2015,03,08,07,05,4.00
2015,03,08,07,06,4.00
2015,03,08,07,07,4.00
2015,03,08,07,08,4.00
2015,03,08,07,09,3.90
2015,03,08,07,10,3.90
2015,03,08,07,11,3.90
2015,03,08,07,12,3.90
2015,03,08,07,13,4.00
2015,03,08,07,14,4.00
2015,03,08,07,15,4.00
2015,03,08,07,16,4.00
2015,03,08,07,17,4.10
2015,03,08,07,18,4.10
2015,03,08,07,19,4.10
2015,03,08,07,20,4.10
2015,03,08,07,21,4.10
2015,03,08,07,22,4.10
2015,03,08,07,23,4.10
2015,03,08,07,24,4.10
2015,03,08,07,25,4.10
2015,03,08,07,26,4.00
2015,03,08,07,27,4.00
2015,03,08,07,28,4.00
2015,03,08,07,29,3.90
2015,03,08,07,30,3.90
2015,03,08,07,31,3.90
2015,03,08,07,32,3.90
2015,03,08,07,33,4.00
2015,03,08,07,34,4.00
2015,03,08,07,35,4.00
2015,03,08,07,36,4.10
2015,03,08,07,37,4.10
2015,03,08,07,38,4.20
2015,03,08,07,39,4.20
2015,03,08,07,40,4.20
2015,03,08,07,41,4.30
2015,03,08,07,42,4.30
2015,03,08,07,43,4.40
2015,03,08,07,44,4.40
2015,03,08,07,45,4.50
2015,03,08,07,46,4.50
2015,03,08,07,47,4.50
2015,03,08,07,48,4.50
2015,03,08,07,49,4.50
2015,03,08,07,50,4.50
2015,03,08,07,51,4.40
2015,03,08,07,52,4.40
2015,03,08,07,53,4.40
2015,03,08,07,54,4.40
2015,03,08,07,55,4.50
2015,03,08,07,56,4.60
2015,03,08,07,57,4.60
2015,03,08,07,58,4.50
2015,03,08,07,59,4.50
2015,03,08,08,00,4.50
2015,03,08,08,01,4.50
2015,03,08,08,02,4.50
2015,03,08,08,03,4.40
2015,03,08,08,04,4.40
2015,03,08,08,05,4.40
2015,03,08,08,06,4.40
2015,03,08,08,07,4.40
2015,03,08,08,08,4.50
2015,03,08,08,09,4.50
2015,03,08,08,10,4.50
2015,03,08,08,11,4.60
2015,03,08,08,12,4.70
2015,03,08,08,13,4.80
2015,03,08,08,14,4.90
2015,03,08,08,15,5.00
2015,03,08,08,16,5.10
2015,03,08,08,17,5.10
2015,03,08,08,18,5.00
2015,03,08,08,19,4.90
2015,03,08,08,20,4.90
2015,03,08,08,21,4.90
2015,03,08,08,22,4.90
2015,03,08,08,23,5.00
2015,03,08,08,24,5.10
2015,03,08,08,25,5.10
2015,03,08,08,26,5.10
2015,03,08,08,27,5.10
2015,03,08,08,28,5.10
2015,03,08,08,29,5.20
2015,03,08,08,30,5.30
2015,03,08,08,31,5.40
2015,03,08,08,32,5.50
2015,03,08,08,33,5.60
2015,03,08,08,34,5.60
2015,03,08,08,35,5.60
2015,03,08,08,36,5.60
2015,03,08,08,37,5.60
2015,03,08,08,38,5.70
2015,03,08,08,39,5.70
2015,03,08,08,40,5.80
2015,03,08,08,41,5.90
2015,03,08,08,42,5.90
2015,03,08,08,43,5.90
2015,03,08,08,44,6.00
2015,03,08,08,45,6.00
2015,03,08,08,46,6.10
2015,03,08,08,47,6.20
2015,03,08,08,48,6.40
2015,03,08,08,49,6.50
2015,03,08,08,50,6.60
2015,03,08,08,51,6.70
2015,03,08,08,52,6.70
2015,03,08,08,53,6.80
2015,03,08,08,54,6.90
2015,03,08,08,55,6.90
2015,03,08,08,56,7.00
2015,03,08,08,57,7.00
2015,03,08,08,58,7.10
2015,03,08,08,59,7.10
2015,03,08,09,00,7.20
2015,03,08,09,01,7.20
2015,03,08,09,02,7.20
2015,03,08,09,03,7.20
2015,03,08,09,04,7.20
2015,03,08,09,05,7.30
2015,03,08,09,06,7.30
2015,03,08,09,07,7.30
2015,03,08,09,08,7.40
2015,03,08,09,09,7.40
2015,03,08,09,10,7.50
2015,03,08,09,11,7.50
2015,03,08,09,12,7.50
2015,03,08,09,13,7.50
2015,03,08,09,14,7.60
2015,03,08,09,15,7.60
2015,03,08,09,16,7.70
2015,03,08,09,17,7.70
2015,03,08,09,18,7.80
2015,03,08,09,19,7.80
2015,03,08,09,20,7.80
2015,03,08,09,21,7.80
2015,03,08,09,22,7.90
2015,03,08,09,23,7.90
2015,03,08,09,24,7.90
2015,03,08,09,25,7.90
2015,03,08,09,26,8.00
2015,03,08,09,27,8.00
2015,03,08,09,28,8.00
2015,03,08,09,29,8.10
2015,03,08,09,30,8.10
2015,03,08,09,31,8.20
2015,03,08,09,32,8.20
2015,03,08,09,33,8.20
2015,03,08,09,34,8.30
2015,03,08,09,35,8.30
2015,03,08,09,36,8.30
2015,03,08,09,37,8.30
2015,03,08,09,38,8.40
2015,03,08,09,39,8.40
2015,03,08,09,40,8.50
2015,03,08,09,41,8.60
2015,03,08,09,42,8.60
2015,03,08,09,43,8.60
2015,03,08,09,44,8.50
2015,03,08,09,45,8.50
2015,03,08,09,46,8.40
2015,03,08,09,47,8.50
2015,03,08,09,48,8.50
2015,03,08,09,49,8.50
2015,03,08,09,50,8.50
2015,03,08,09,51,8.50
2015,03,08,09,52,8.50
2015,03,08,09,53,8.50
2015,03,08,09,54,8.50
2015,03,08,09,55,8.60
2015,03,08,09,56,8.60
2015,03,08,09,57,8.60
2015,03,08,09,58,8.70
2015,03,08,09,59,8.70
2015,03,08,10,00,8.80
2015,03,08,10,01,8.80
2015,03,08,10,02,8.70
2015,03,08,10,03,8.70
2015,03,08,10,04,8.70
2015,03,08,10,05,8.80
2015,03,08,10,06,8.80
2015,03,08,10,07,8.80
2015,03,08,10,08,8.80
2015,03,08,10,09,8.80
2015,03,08,10,10,8.80
2015,03,08,10,11,8.80
2015,03,08,10,12,8.80
2015,03,08,10,13,8.80
2015,03,08,10,14,8.80
2015,03,08,10,15,8.70
2015,03,08,10,16,8.80
2015,03,08,10,17,8.80
2015,03,08,10,18,8.80
2015,03,08,10,19,8.80
2015,03,08,10,20,8.80
2015,03,08,10,21,8.90
2015,03,08,10,22,8.90
2015,03,08,10,23,8.90
2015,03,08,10,24,8.90
2015,03,08,10,25,8.90
2015,03,08,10,26,9.00
2015,03,08,10,27,9.10
2015,03,08,10,28,9.20
2015,03,08,10,29,9.20
2015,03,08,10,30,9.20
2015,03,08,10,31,9.20
2015,03,08,10,32,9.20
2015,03,08,10,33,9.10
2015,03,08,10,34,9.00
2015,03,08,10,35,8.90
2015,03,08,10,36,9.00
2015,03,08,10,37,9.00
2015,03,08,10,38,9.00
2015,03,08,10,39,9.00
2015,03,08,10,40,8.90
2015,03,08,10,41,8.90
2015,03,08,10,42,9.00
2015,03,08,10,43,9.00
2015,03,08,10,44,9.00
2015,03,08,10,45,9.00
2015,03,08,10,46,9.10
2015,03,08,10,47,9.10
2015,03,08,10,48,9.20
2015,03,08,10,49,9.20
2015,03,08,10,50,9.20
2015,03,08,10,51,9.20
2015,03,08,10,52,9.30
2015,03,08,10,53,9.30
2015,03,08,10,54,9.30
2015,03,08,10,55,9.30
2015,03,08,10,56,9.30
2015,03,08,10,57,9.20
2015,03,08,10,58,9.20
2015,03,08,10,59,9.20
2015,03,08,11,00,9.20
2015,03,08,11,01,9.20
2015,03,08,11,02,9.20
2015,03,08,11,03,9.30
2015,03,08,11,04,9.30
2015,03,08,11,05,9.30
2015,03,08,11,06,9.30
2015,03,08,11,07,9.30
2015,03,08,11,08,9.30
2015,03,08,11,09,9.30
2015,03,08,11,10,9.30
2015,03,08,11,11,9.30
2015,03,08,11,12,9.30
2015,03,08,11,13,9.30
2015,03,08,11,14,9.40
2015,03,08,11,15,9.40
2015,03,08,11,16,9.40
2015,03,08,11,17,9.50
2015,03,08,11,18,9.50
2015,03,08,11,19,9.60
2015,03,08,11,20,9.60
2015,03,08,11,21,9.60
2015,03,08,11,22,9.60
2015,03,08,11,23,9.70
2015,03,08,11,24,9.80
2015,03,08,11,25,9.80
2015,03,08,11,26,9.70
2015,03,08,11,27,9.70
2015,03,08,11,28,9.70
2015,03,08,11,29,9.80
2015,03,08,11,30,9.80
2015,03,08,11,31,9.90
2015,03,08,11,32,10.00
2015,03,08,11,33,10.10
2015,03,08,11,34,10.10
2015,03,08,11,35,10.10
2015,03,08,11,36,10.20
2015,03,08,11,37,10.30
2015,03,08,11,38,10.30
2015,03,08,11,39,10.40
2015,03,08,11,40,10.40
2015,03,08,11,41,10.40
2015,03,08,11,42,10.40
2015,03,08,11,43,10.50
2015,03,08,11,44,10.50
2015,03,08,11,45,10.40
2015,03,08,11,46,10.30
2015,03,08,11,47,10.20
2015,03,08,11,48,10.20
2015,03,08,11,49,10.20
2015,03,08,11,50,10.20
2015,03,08,11,51,10.20
2015,03,08,11,52,10.20
2015,03,08,11,53,10.10
2015,03,08,11,54,10.10
2015,03,08,11,55,10.10
2015,03,08,11,56,10.10
2015,03,08,11,57,10.10
2015,03,08,11,58,10.10
2015,03,08,11,59,10.10
2015,03,08,12,00,10.10
2015,03,08,12,01,10.20
2015,03,08,12,02,10.20
2015,03,08,12,03,10.20
2015,03,08,12,04,10.30
2015,03,08,12,05,10.40
2015,03,08,12,06,10.40
2015,03,08,12,07,10.50
2015,03,08,12,08,10.60
2015,03,08,12,09,10.60
2015,03,08,12,10,10.60
2015,03,08,12,11,10.60
2015,03,08,12,12,10.60
2015,03,08,12,13,10.60
2015,03,08,12,14,10.70
2015,03,08,12,15,10.70
2015,03,08,12,16,10.70
2015,03,08,12,17,10.70
2015,03,08,12,18,10.70
2015,03,08,12,19,10.70
2015,03,08,12,20,10.70
2015,03,08,12,21,10.70
2015,03,08,12,22,10.70
2015,03,08,12,23,10.80
2015,03,08,12,24,10.80
2015,03,08,12,25,10.80
2015,03,08,12,26,10.90
2015,03,08,12,27,10.90
2015,03,08,12,28,11.00
2015,03,08,12,29,11.00
2015,03,08,12,30,11.10
2015,03,08,12,31,11.10
2015,03,08,12,32,11.20
2015,03,08,12,33,11.20
2015,03,08,12,34,11.30
2015,03,08,12,35,11.40
2015,03,08,12,36,11.50
2015,03,08,12,37,11.60
2015,03,08,12,38,11.70
2015,03,08,12,39,11.80
2015,03,08,12,40,11.80
2015,03,08,12,41,11.90
2015,03,08,12,42,11.90
2015,03,08,12,43,11.90
2015,03,08,12,44,11.90
2015,03,08,12,45,11.90
2015,03,08,12,46,12.00
2015,03,08,12,47,12.00
2015,03,08,12,48,12.00
2015,03,08,12,49,12.10
2015,03,08,12,50,12.10
2015,03,08,12,51,12.20
2015,03,08,12,52,12.30
2015,03,08,12,53,12.30
2015,03,08,12,54,12.40
2015,03,08,12,55,12.50
2015,03,08,12,56,12.50
2015,03,08,12,57,12.60
2015,03,08,12,58,12.60
2015,03,08,12,59,12.60
2015,03,08,13,00,12.70
2015,03,08,13,01,12.80
2015,03,08,13,02,12.80
2015,03,08,13,03,12.80
2015,03,08,13,04,12.80
2015,03,08,13,05,12.80
2015,03,08,13,06,12.80
2015,03,08,13,07,12.80
2015,03,08,13,08,12.80
2015,03,08,13,09,12.80
2015,03,08,13,10,12.90
2015,03,08,13,11,12.90
2015,03,08,13,12,12.90
2015,03,08,13,13,12.90
2015,03,08,13,14,12.90
2015,03,08,13,15,12.90
2015,03,08,13,16,12.90
2015,03,08,13,17,13.00
2015,03,08,13,18,13.00
2015,03,08,13,19,12.90
2015,03,08,13,20,12.90
2015,03,08,13,21,12.90
2015,03,08,13,22,12.90
2015,03,08,13,23,13.00
2015,03,08,13,24,13.00
2015,03,08,13,25,13.00
2015,03,08,13,26,13.10
2015,03,08,13,27,13.10
2015,03,08,13,28,13.10
2015,03,08,13,29,13.20
2015,03,08,13,30,13.20
2015,03,08,13,31,13.20
2015,03,08,13,32,13.20
2015,03,08,13,33,13.20
2015,03,08,13,34,13.10
2015,03,08,13,35,13.00
2015,03,08,13,36,13.00
2015,03,08,13,37,12.90
2015,03,08,13,38,12.90
2015,03,08,13,39,12.80
2015,03,08,13,40,12.80
2015,03,08,13,41,12.80
2015,03,08,13,42,12.80
2015,03,08,13,43,12.80
2015,03,08,13,44,12.90
2015,03,08,13,45,12.90
2015,03,08,13,46,12.80
2015,03,08,13,47,12.80
2015,03,08,13,48,12.80
2015,03,08,13,49,12.70
2015,03,08,13,50,12.70
2015,03,08,13,51,12.60
2015,03,08,13,52,12.50
2015,03,08,13,53,12.60
2015,03,08,13,54,12.60
2015,03,08,13,55,12.70
2015,03,08,13,56,12.80
2015,03,08,13,57,12.90
2015,03,08,13,58,12.90
2015,03,08,13,59,13.00
2015,03,08,14,00,13.20
2015,03,08,14,01,13.30
2015,03,08,14,02,13.30
2015,03,08,14,03,13.40
2015,03,08,14,04,13.40
2015,03,08,14,05,13.50
2015,03,08,14,06,13.60
2015,03,08,14,07,13.60
2015,03,08,14,08,13.60
2015,03,08,14,09,13.60
2015,03,08,14,10,13.60
2015,03,08,14,11,13.70
2015,03,08,14,12,13.60
2015,03,08,14,13,13.50
2015,03,08,14,14,13.40
2015,03,08,14,15,13.30
2015,03,08,14,16,13.30
2015,03,08,14,17,13.20
2015,03,08,14,18,13.20
2015,03,08,14,19,13.30
2015,03,08,14,20,13.40
2015,03,08,14,21,13.50
2015,03,08,14,22,13.60
2015,03,08,14,23,13.70
2015,03,08,14,24,13.80
2015,03,08,14,25,14.00
2015,03,08,14,26,14.00
2015,03,08,14,27,14.10
2015,03,08,14,28,14.10
2015,03,08,14,29,14.20
2015,03,08,14,30,14.20
2015,03,08,14,31,14.30
2015,03,08,14,32,14.30
2015,03,08,14,33,14.20
2015,03,08,14,34,14.00
2015,03,08,14,35,13.90
2015,03,08,14,36,13.90
2015,03,08,14,37,13.80
2015,03,08,14,38,13.80
2015,03,08,14,39,13.80
2015,03,08,14,40,13.80
2015,03,08,14,41,13.80
2015,03,08,14,42,13.80
2015,03,08,14,43,13.80
2015,03,08,14,44,13.80
2015,03,08,14,45,13.80
2015,03,08,14,46,13.80
2015,03,08,14,47,13.80
2015,03,08,14,48,13.70
2015,03,08,14,49,13.70
2015,03,08,14,50,13.60
2015,03,08,14,51,13.60
2015,03,08,14,52,13.50
2015,03,08,14,53,13.60
2015,03,08,14,54,13.60
2015,03,08,14,55,13.70
2015,03,08,14,56,13.70
2015,03,08,14,57,13.80
2015,03,08,14,58,13.80
2015,03,08,14,59,13.80
2015,03,08,15,00,13.80
2015,03,08,15,01,13.80
2015,03,08,15,02,13.70
2015,03,08,15,03,13.80
2015,03,08,15,04,13.80
2015,03,08,15,05,13.80
2015,03,08,15,06,13.80
2015,03,08,15,07,13.70
2015,03,08,15,08,13.70
2015,03,08,15,09,13.70
2015,03,08,15,10,13.60
2015,03,08,15,11,13.60
2015,03,08,15,12,13.60
2015,03,08,15,13,13.60
2015,03,08,15,14,13.60
2015,03,08,15,15,13.60
2015,03,08,15,16,13.50
2015,03,08,15,17,13.50
2015,03,08,15,18,13.50
2015,03,08,15,19,13.40
2015,03,08,15,20,13.40
2015,03,08,15,21,13.50
2015,03,08,15,22,13.50
2015,03,08,15,23,13.50
2015,03,08,15,24,13.50
2015,03,08,15,25,13.40
2015,03,08,15,26,13.40
2015,03,08,15,27,13.30
2015,03,08,15,28,13.20
2015,03,08,15,29,13.10
2015,03,08,15,30,13.10
2015,03,08,15,31,13.10
2015,03,08,15,32,13.20
2015,03,08,15,33,13.20
2015,03,08,15,34,13.20
2015,03,08,15,35,13.20
2015,03,08,15,36,13.20
2015,03,08,15,37,13.30
2015,03,08,15,38,13.30
2015,03,08,15,39,13.40
2015,03,08,15,40,13.40
2015,03,08,15,41,13.40
2015,03,08,15,42,13.40
2015,03,08,15,43,13.30
2015,03,08,15,44,13.30
2015,03,08,15,45,13.20
2015,03,08,15,46,13.20
2015,03,08,15,47,13.10
2015,03,08,15,48,13.10
2015,03,08,15,49,13.10
2015,03,08,15,50,13.10
2015,03,08,15,51,13.10
2015,03,08,15,52,13.10
2015,03,08,15,53,13.10
2015,03,08,15,54,13.20
2015,03,08,15,55,13.30
2015,03,08,15,56,13.30
2015,03,08,15,57,13.30
2015,03,08,15,58,13.30
2015,03,08,15,59,13.30
2015,03,08,16,00,13.30
2015,03,08,16,01,13.30
2015,03,08,16,02,13.40
2015,03,08,16,03,13.40
2015,03,08,16,04,13.50
2015,03,08,16,05,13.50
2015,03,08,16,06,13.60
2015,03,08,16,07,13.60
2015,03,08,16,08,13.60
2015,03,08,16,09,13.50
2015,03,08,16,10,13.50
2015,03,08,16,11,13.40
2015,03,08,16,12,13.40
2015,03,08,16,13,13.40
2015,03,08,16,14,13.40
2015,03,08,16,15,13.50
2015,03,08,16,16,13.50
2015,03,08,16,17,13.40
2015,03,08,16,18,13.40
2015,03,08,16,19,13.50
2015,03,08,16,20,13.50
2015,03,08,16,21,13.50
2015,03,08,16,22,13.50
2015,03,08,16,23,13.60
2015,03,08,16,24,13.60
2015,03,08,16,25,13.70
2015,03,08,16,26,13.70
2015,03,08,16,27,13.70
2015,03,08,16,28,13.70
2015,03,08,16,29,13.60
2015,03,08,16,30,13.50
2015,03,08,16,31,13.40
2015,03,08,16,32,13.30
2015,03,08,16,33,13.30
2015,03,08,16,34,13.20
2015,03,08,16,35,13.20
2015,03,08,16,36,13.20
2015,03,08,16,37,13.20
2015,03,08,16,38,13.10
2015,03,08,16,39,12.90
2015,03,08,16,40,12.80
2015,03,08,16,41,12.70
2015,03,08,16,42,12.60
2015,03,08,16,43,12.60
2015,03,08,16,44,12.60
2015,03,08,16,45,12.50
2015,03,08,16,46,12.50
2015,03,08,16,47,12.50
2015,03,08,16,48,12.50
2015,03,08,16,49,12.50
2015,03,08,16,50,12.60
2015,03,08,16,51,12.60
2015,03,08,16,52,12.60
2015,03,08,16,53,12.60
2015,03,08,16,54,12.60
2015,03,08,16,55,12.60
2015,03,08,16,56,12.70
2015,03,08,16,57,12.70
2015,03,08,16,58,12.70
2015,03,08,16,59,12.80
2015,03,08,17,00,12.80
2015,03,08,17,01,12.80
2015,03,08,17,02,12.90
2015,03,08,17,03,12.90
2015,03,08,17,04,12.90
2015,03,08,17,05,12.90
2015,03,08,17,06,12.90
2015,03,08,17,07,12.90
2015,03,08,17,08,12.90
2015,03,08,17,09,12.80
2015,03,08,17,10,12.80
2015,03,08,17,11,12.80
2015,03,08,17,12,12.80
2015,03,08,17,13,12.80
2015,03,08,17,14,12.80
2015,03,08,17,15,12.80
2015,03,08,17,16,12.80
2015,03,08,17,17,12.80
2015,03,08,17,18,12.80
2015,03,08,17,19,12.80
2015,03,08,17,20,12.80
2015,03,08,17,21,12.80
2015,03,08,17,22,12.80
2015,03,08,17,23,12.80
2015,03,08,17,24,12.80
2015,03,08,17,25,12.70
2015,03,08,17,26,12.70
2015,03,08,17,27,12.60
2015,03,08,17,28,12.60
2015,03,08,17,29,12.50
2015,03,08,17,30,12.50
2015,03,08,17,31,12.40
2015,03,08,17,32,12.40
2015,03,08,17,33,12.30
2015,03,08,17,34,12.20
2015,03,08,17,35,12.20
2015,03,08,17,36,12.20
2015,03,08,17,37,12.20
2015,03,08,17,38,12.20
2015,03,08,17,39,12.20
2015,03,08,17,40,12.20
2015,03,08,17,41,12.10
2015,03,08,17,42,12.10
2015,03,08,17,43,12.10
2015,03,08,17,44,12.10
2015,03,08,17,45,12.10
2015,03,08,17,46,12.10
2015,03,08,17,47,12.10
2015,03,08,17,48,12.10
2015,03,08,17,49,12.10
2015,03,08,17,50,12.00
2015,03,08,17,51,12.00
2015,03,08,17,52,12.00
2015,03,08,17,53,11.90
2015,03,08,17,54,11.90
2015,03,08,17,55,11.90
2015,03,08,17,56,11.90
2015,03,08,17,57,11.90
2015,03,08,17,58,11.80
2015,03,08,17,59,11.80
2015,03,08,18,00,11.80
2015,03,08,18,01,11.80
2015,03,08,18,02,11.80
2015,03,08,18,03,11.80
2015,03,08,18,04,11.80
2015,03,08,18,05,11.80
2015,03,08,18,06,11.70
2015,03,08,18,07,11.70
2015,03,08,18,08,11.70
2015,03,08,18,09,11.70
2015,03,08,18,10,11.70
2015,03,08,18,11,11.70
2015,03,08,18,12,11.70
2015,03,08,18,13,11.60
2015,03,08,18,14,11.60
2015,03,08,18,15,11.60
2015,03,08,18,16,11.60
2015,03,08,18,17,11.60
2015,03,08,18,18,11.50
2015,03,08,18,19,11.50
2015,03,08,18,20,11.50
2015,03,08,18,21,11.40
2015,03,08,18,22,11.40
2015,03,08,18,23,11.40
2015,03,08,18,24,11.30
2015,03,08,18,25,11.30
2015,03,08,18,26,11.30
2015,03,08,18,27,11.30
2015,03,08,18,28,11.30
2015,03,08,18,29,11.20
2015,03,08,18,30,11.20
2015,03,08,18,31,11.20
2015,03,08,18,32,11.10
2015,03,08,18,33,11.10
2015,03,08,18,34,11.10
2015,03,08,18,35,11.10
2015,03,08,18,36,11.00
2015,03,08,18,37,11.00
2015,03,08,18,38,10.90
2015,03,08,18,39,10.90
2015,03,08,18,40,10.90
2015,03,08,18,41,10.80
2015,03,08,18,42,10.80
2015,03,08,18,43,10.80
2015,03,08,18,44,10.80
2015,03,08,18,45,10.80
2015,03,08,18,46,10.70